Flag for Canada Weather past 2 weeks in Montreal, Quebec, Canada

Now
54 °F

Mostly cloudy.


Feels Like: 48 °F
Forecast: 47 / 64 °F
Wind: 22 mph from West

Location: Montreal - Pierre Elliot Trudeau International Aiport

Current Time: Sep 22, 2014 at 12:47:51 PM

Latest Report: Sep 22, 2014 at 12:00 PM


Visibility: 15 mi

Pressure: 29.80 "Hg

Humidity: 67%

Dew point: 43 °F

Location of MontrealLocation

Historic Weather in Montreal — Graph

°F

Montreal temperature yesterday

Maximum temperature yesterday: 73 °F (at 5:00 PM)
Minimum temperature yesterday: 63 °F (at 12:00 AM)
Average temperature yesterday: 66 °F

Past Weeks' High & Low Weather Summary

 TemperatureHumidityPressure
High77 °F (Sep 8, 4:00 PM)94% (Sep 8, 5:00 AM)30.43 "Hg (Sep 8, 5:00 AM)
Low36 °F (Sep 19, 4:00 AM)32% (Sep 19, 2:00 PM)29.47 "Hg (Sep 22, 12:00 AM)
Average57 °F71%30.05 "Hg
* Reported Sep 7 12:00 Noon — Sep 22 12:00 Noon, Montreal, Weather by CustomWeather, © 2014

Note: Actual official high and low records may vary slightly from our data, if they occured in-between our weather recording intervals... More about our weather records

Advertising

Montreal weather history for previous 24 hours

 ConditionsComfort  
Time TempWeatherWind HumidityBarometerVisibility
12:00 PM
Sep 22
54 °FMostly cloudy.22 mph67%29.80 "Hg15 mi
11:00 AM52 °FMostly cloudy.18 mph67%29.78 "Hg15 mi
10:00 AM52 °FOvercast.16 mph72%29.74 "Hg15 mi
9:00 AM50 °FOvercast.18 mph76%29.71 "Hg15 mi
8:00 AM50 °FMostly cloudy.22 mph82%29.67 "Hg15 mi
7:00 AM50 °FMostly cloudy.22 mph82%29.62 "Hg15 mi
6:00 AM50 °FDrizzle. Fog.21 mph88%29.58 "Hg6 mi
5:00 AM52 °FSprinkles. Mostly cloudy.16 mph88%29.55 "Hg12 mi
4:00 AM54 °FMostly cloudy.18 mph88%29.52 "Hg15 mi
3:00 AM55 °FLow clouds.14 mph94%29.49 "Hg12 mi
2:00 AM57 °FLow clouds.18 mph88%29.49 "Hg12 mi
1:00 AM61 °FLow clouds.15 mph94%29.50 "Hg12 mi
12:00 AM64 °FMostly cloudy.9 mph88%29.47 "Hg15 mi
11:00 PM
Sep 21
66 °FPassing clouds.14 mph83%29.49 "Hg15 mi
10:00 PM66 °FOvercast.12 mph78%29.51 "Hg15 mi
9:00 PM68 °FPassing clouds.10 mph78%29.52 "Hg15 mi
8:00 PM70 °FPassing clouds.15 mph69%29.51 "Hg15 mi
7:00 PM72 °FBroken clouds.12 mph69%29.50 "Hg15 mi
6:00 PM72 °FBroken clouds.10 mph73%29.52 "Hg15 mi
5:00 PM73 °FBroken clouds.13 mph74%29.52 "Hg15 mi
4:00 PM68 °FOvercast.9 mph88%29.54 "Hg15 mi
3:00 PM68 °FLight rain. Fog.10 mph88%29.57 "Hg4 mi
2:00 PM70 °FSprinkles. Mostly cloudy.13 mph78%29.57 "Hg12 mi
1:00 PM70 °FSprinkles. More clouds than sun.6 mph78%29.62 "Hg15 mi
12:00 PM66 °FMostly cloudy.7 mph88%29.65 "Hg15 mi
Weather by CustomWeather, © 2014

See weather overviewHow to use our weather pages